Regional Weather Roundup
Issued by NWS Tiyan, Guam

Home | Current Version | Previous Version | Text Only | Print | Product List | Glossary On
Versions: 1 2 3 4 5 6 7 8 9 10 11 12 13 14 15 16 17 18 19 20 21 22 23 24 25 26 27 28 29 30 31 32 33 34 35 36 37 38 39 40 41 42 43 44 45 46 47 48 49 50
000
ASGM40 PGUM 200412
RWRGUM
WEATHER ROUNDUP FOR THE MARIANAS
NATIONAL WEATHER SERVICE TIYAN GU
200 PM CHST MON FEB 20 2017

GUZ001>004-200500-
MARIANA ISLANDS-

CITY           SKY/WX    TMP DP  RH WIND       PRES   REMARKS
GUAM AIRPORT   MOSUNNY   84  70  61 E17G26    29.91F
ANDERSEN AFB   MOSUNNY   82  72  69 E18       29.92F
ROTA AIRPORT   PTSUNNY   81  70  69 E18G24    29.92F
TINIAN AP      PTSUNNY   84  75  74 E18       29.90F HX  92
SAIPAN AP      MOSUNNY   82  72  69 E20G26    29.92F

$$




USA.gov is the U.S. government's official web portal to all federal, state and local government web resources and services.